SCP
0 0 0 0 0 0 0 0 0 0 0 0 0 0 0 0 0 0 0 0 0 0 0 0 0 0 0 0 0 0 0 0 0 0 0 0 0 0 0 0 0 0 0 0
0 0 0 0 0 0 0 0 0 0 0 0 -0 -0 0 0 0 0 0 0 -0 0 0 0 0 0 0 0 0 0 0 0 0 0 0 0 0 0 0 0 0 0 0 0
0 0 0 0 0 0 0 0 0 0 0 0 0 -0 -0 0 0 0 0 0 0 0 0 0 0 0 0 0 0 0 0 0 0 0 0 0 0 0 0 0 0 0 0 0
0 0 0 0 0 0 0 0 0 0 0 0 0 -0 -0 0 0 0 0 0 0 0 0 0 0 0 0 0 0 0 0 0 0 0 0 0 0 0 0 0 0 0 0 0
0 0 0 0 0 0 0 0 0 0 0 0 0 0 -0 -0 0 -0 -0 0 0 0 0 0 0 0 0 0 0 0 0 0 0 0 0 0 0 0 0 0 0 0 0 0
0 0 0 0 0 0 0 0 0 0 0 0 0 0 -0 -0 -0 0 0 0 0 0 0 0 0 0 0 0 0 0 0 0 0 0 0 0 0 0 0 0 0 0 0 0
0 0 0 0 0 0 0 0 0 0 0 0 0 0 0 0 0 0 0 0 0 0 0 0 0 0 0 0 0 0 0 0 0 0 0 0 0 0 0 0 0 0 0 0
0 0 0 0 0 0 0 0 0 0 0 0 0 0 0 0 0 0 0 0 0 0 0 0 0 0 0 0 0 0 0 0 0 0 0 0 0 0 0 0 0 0 0 0
0 0 0 0 0 0 0 0 0 0 0 0 0 0 0 0 0 0 0 0 0 0 0 0 0 0 0 0 0 0 0 0 0 0 0 0 0 0 0 0 0 0 0 0
0 0 0 0 0 0 0 0 0 0 0 0 0 0 0 0 0 0 0 0 0 0 0 0 0 0 0 0 0 0 0 0 -0 -0 0 0 0 0 0 0 0 0 0 0
0 0 0 0 0 0 0 0 0 0 0 0 0 0 0 0 0 0 0 0 0 0 0 0 0 0 0 0 0 0 0 0 -0 -0 -0 0 0 0 0 0 0 0 0 0
0 0 0 0 0 0 0 0 0 0 0 0 0 0 0 0 0 0 0 0 0 0 0 0 0 0 0 0 0 0 -0 -0 -0 -0 -0 0 0 0 0 0 0 0 0 0
0 0 0 0 0 0 0 0 0 0 0 0 0 0 0 0 0 0 0 0 0 0 -0 0 0 0 0 0 0 0 -0 -0 0 0 0 0 0 0 0 0 0 0 0 0
0 0 0 0 0 0 0 0 0 0 0 0 0 0 0 0 0 0 0 0 -0 -0 0 0 0 0 0 0 0 -0 -0 0 0 0 0 0 0 0 0 0 0 0 0 0
0 0 0 0 0 0 0 0 0 0 0 0 0 0 0 0 0 0 0 0 0 0 0 0 0 0 0 0 0 -0 0 0 0 0 0 0 0 0 0 0 0 0 0 0
0 0 0 0 0 0 0 0 0 0 0 0 0 0 0 0 -0 0 0 0 0 0 0 0 0 0 0 0 0 0 0 0 0 0 0 0 0 0 0 0 0 0 0 0
0 0 0 0 0 -0 0 0 0 0 0 0 0 0 0 0 0 0 0 0 0 0 0 0 -0 -0 -0 -0 0 0 0 0 0 0 0 0 0 0 0 0 0 0 0 0
0 0 0 -0 -0 0 0 0 0 -0 0 0 0 0 0 0 0 0 0 0 0 0 0 0 -0 0 0 0 0 0 0 0 0 0 0 0 0 0 0 0 0 0 0 0
0 0 0 0 0 0 0 0 0 0 0 0 0 0 0 0 0 0 0 0 0 0 0 0 0 0 0 0 -0 -0 0 -0 0 0 0 0 0 0 0 0 0 0 0 0
0 0 0 0 0 -0 -0 0 0 0 0 0 0 0 0 0 0 0 0 0 0 0 0 0 0 0 -0 -0 -0 -0 -0 -0 0 0 0 0 0 0 0 0 0 0 0 0
0 0 0 0 0 0 0 0 0 0 0 0 0 0 0 0 0 0 0 0 0 0 0 -0 -0 -0 -0 -0 -0 -0 -0 0 0 0 0 0 0 0 0 0 0 0 0 0
0 0 0 0 0 0 0 0 0 0 0 0 0 0 0 0 0 0 0 0 0 0 -0 0 -0 0 0 0 0 0 0 0 0 0 0 0 0 0 0 0 0 0 0 0
0 0 0 0 0 0 0 0 0 0 0 0 0 0 0 0 0 0 0 0 0 0 0 0 0 0 0 0 0 0 0 0 0 0 0 0 0 0 0 0 0 0 0 0
0 0 0 0 0 0 0 0 0 0 0 0 0 0 0 0 0 0 0 0 0 0 0 0 0 0 0 0 0 0 0 0 0 0 0 0 0 0 0 0 0 0 0 0
0 0 0 0 0 0 0 0 0 0 0 0 0 0 0 0 0 0 0 0 0 0 0 0 0 0 0 0 0 0 0 0 0 0 0 0 0 0 0 0 0 0 0 0
0 0 0 0 0 0 0 0 0 0 0 0 0 0 0 0 0 0 0 0 0 0 0 0 0 0 0 0 0 0 0 0 0 0 0 0 0 0 0 0 0 0 0 0
Wind_Speed_500mb
10 8 11 20 17 12 5 5 3 8 9 9 13 17 22 50 53 63 65 62 62 63 57 51 54 54 58 58 61 71 76 83 82 81 81 89 88 79 71 74 71 69 64 60
9 9 20 12 11 11 7 8 9 8 5 5 12 24 24 22 43 59 65 72 67 61 55 49 48 56 60 64 62 64 73 79 85 85 84 85 91 92 92 87 82 77 72 65
14 11 24 11 6 8 6 8 6 11 3 7 10 15 16 10 20 30 41 50 49 46 47 42 42 50 54 66 65 62 65 73 81 84 82 82 86 88 89 93 94 91 82 75
13 18 3 9 10 11 6 5 10 10 4 7 3 12 14 15 25 15 55 63 55 50 41 35 28 33 50 45 63 63 61 62 71 78 80 82 86 92 95 94 93 91 85 81
14 11 13 11 11 12 12 3 4 4 3 6 6 3 16 12 13 25 28 35 26 26 17 20 26 35 34 35 44 56 55 58 68 77 80 79 82 84 87 87 89 87 87 84
10 4 7 15 5 5 15 12 15 11 6 9 16 15 8 9 14 9 8 9 10 12 14 15 21 28 30 29 35 45 53 56 62 71 74 74 75 75 78 83 83 82 80 77
4 6 4 9 13 12 11 13 2 5 3 15 7 7 12 14 15 7 10 18 12 22 13 14 18 16 14 20 30 39 44 46 50 60 66 69 70 71 74 77 79 80 78 77
15 12 19 12 16 18 15 15 11 14 8 10 9 13 10 15 17 24 41 29 15 15 19 19 18 20 27 29 31 30 31 35 39 45 49 53 57 63 68 71 74 78 77 72
13 12 5 7 9 22 12 13 12 6 3 5 9 14 17 16 20 34 33 24 25 23 24 21 26 28 24 18 18 17 16 18 23 27 32 34 38 47 54 59 65 71 71 69
7 4 5 2 5 3 13 13 6 2 5 8 10 10 13 14 10 12 20 35 42 21 9 19 17 18 15 15 17 15 11 7 6 7 11 14 19 28 37 46 55 61 65 67
9 8 5 7 14 20 7 9 8 9 11 11 5 11 10 14 9 11 13 28 32 26 8 11 16 14 16 18 14 12 11 6 3 4 7 12 17 25 33 40 46 52 57 62
12 9 10 15 7 3 2 16 13 10 8 10 7 20 9 18 12 26 25 32 31 28 25 21 13 11 19 15 11 8 5 7 10 16 21 25 28 31 37 41 42 47 52 53
7 6 5 10 9 4 8 10 22 6 6 15 11 18 8 22 21 30 34 42 46 42 32 22 18 12 16 17 11 12 25 27 28 28 31 35 42 45 49 49 50 48 47 49
9 5 5 14 8 3 6 4 6 24 13 18 20 15 5 11 16 24 37 54 59 46 31 30 31 27 24 35 37 41 42 38 40 46 47 49 50 54 58 59 59 56 50 49
7 4 1 6 4 7 4 7 5 4 6 11 9 21 16 28 32 51 63 63 48 43 39 33 33 33 36 39 41 44 47 48 51 58 59 61 60 61 65 67 66 64 57 52
8 4 4 6 10 11 8 17 16 10 7 15 27 42 23 51 30 21 28 27 33 39 40 41 39 38 36 34 31 31 38 41 47 53 64 68 66 67 67 66 66 67 60 57
19 13 9 4 11 8 12 30 34 13 13 18 18 21 6 7 9 15 19 28 33 38 43 48 51 48 45 43 42 44 47 50 57 65 66 67 68 69 66 63 66 66 63 61
12 9 4 5 9 9 13 2 22 34 21 26 21 8 9 3 11 8 24 33 36 40 44 46 49 51 53 56 59 58 55 56 59 60 59 54 56 59 58 60 62 62 62 62
5 10 7 8 9 11 15 11 14 15 14 1 6 7 8 14 2 20 27 31 36 40 41 46 48 51 53 57 60 63 62 61 60 60 60 57 56 56 54 57 58 58 59 59
8 1 6 6 8 16 10 3 13 9 7 12 13 9 6 14 6 6 29 38 43 43 41 45 47 51 55 56 54 55 59 61 62 60 58 53 52 52 51 48 49 52 54 53
8 7 26 18 8 14 11 15 2 9 8 15 14 4 2 6 13 29 36 42 42 49 53 51 51 58 62 66 67 62 59 60 58 58 57 52 48 44 44 44 44 44 48 49
13 15 10 10 8 20 10 7 12 7 16 13 1 19 26 31 33 36 41 52 53 54 57 60 64 61 56 59 63 65 64 60 58 54 50 51 47 41 38 38 38 39 43 44
4 12 10 15 11 6 18 25 21 15 2 7 11 29 40 39 42 48 65 68 62 54 52 52 55 59 56 58 58 59 56 56 58 57 52 46 45 42 38 37 35 35 37 39
6 8 5 7 6 10 12 12 11 9 14 22 34 49 54 52 54 59 71 65 56 54 52 52 47 45 50 53 55 57 55 54 54 52 49 45 41 37 35 34 32 30 29 31
11 5 5 6 8 3 21 16 16 32 47 52 58 61 58 54 50 54 60 59 54 50 47 46 47 46 45 50 56 59 56 53 52 51 47 45 41 37 31 30 27 25 23 22
11 9 6 9 2 1 31 49 54 56 57 54 60 66 59 49 50 48 56 56 55 53 50 53 52 55 53 52 55 53 51 50 50 52 49 46 42 36 31 27 27 26 22 22
Wind_Direction_500mb
187 104 186 209 198 198 185 140 199 264 204 163 228 256 265 276 285 276 272 270 265 262 269 265 262 259 254 248 240 235 234 233 234 231 229 225 224 225 224 231 235 239 238 239
49 209 222 214 190 192 190 220 254 297 174 158 266 272 264 251 263 266 270 273 272 273 273 269 259 258 252 250 246 239 237 237 236 237 236 232 231 228 232 235 239 242 242 240
160 222 208 161 167 166 193 171 234 222 350 284 307 288 291 288 253 278 269 266 270 273 277 279 263 253 251 247 244 245 244 241 239 238 238 236 236 236 234 234 238 240 241 239
216 232 144 163 198 140 234 200 229 254 24 235 131 284 295 267 278 277 269 267 273 284 278 269 261 253 249 251 243 242 245 247 245 242 241 241 239 237 237 238 240 241 237 236
230 178 184 185 202 157 204 139 116 128 162 351 285 265 270 286 276 256 275 272 283 283 281 267 243 234 254 243 238 238 240 246 247 243 244 246 245 244 246 246 246 245 246 244
174 130 172 187 73 163 148 69 36 36 65 278 195 198 278 218 232 278 259 230 240 236 249 242 228 237 254 252 239 234 238 242 244 246 247 248 249 249 248 249 251 250 248 246
142 213 150 134 78 3 108 105 318 326 350 240 276 239 227 258 226 259 286 312 258 238 238 218 213 216 234 249 243 242 244 243 239 241 245 249 252 253 253 253 256 258 257 255
165 260 162 190 177 173 190 161 165 200 206 264 329 238 246 230 255 304 307 313 320 261 236 230 244 263 275 252 240 244 247 245 241 239 241 247 253 255 257 257 260 262 262 262
164 243 153 159 147 153 202 208 171 77 54 24 232 293 306 284 298 329 336 359 360 299 246 255 277 282 266 247 232 219 220 227 230 237 242 248 255 260 262 262 261 262 263 263
200 167 346 57 107 25 154 162 81 5 161 243 255 259 231 280 45 2 15 26 19 14 270 280 264 273 250 207 176 163 152 147 177 221 241 257 269 270 269 267 266 266 265 263
165 127 303 133 202 171 141 192 192 147 158 179 266 258 229 132 158 96 59 43 33 30 13 314 301 267 197 168 156 136 113 92 68 1 334 325 299 286 281 275 269 265 266 266
200 177 179 201 228 241 248 204 166 148 229 226 167 254 169 135 145 82 60 48 35 20 2 334 305 217 185 170 171 166 221 283 297 304 303 301 295 297 289 285 279 269 266 266
182 201 79 352 349 3 198 194 215 168 87 212 159 255 160 128 75 31 15 357 353 348 341 347 348 300 250 235 239 265 296 272 270 277 284 292 302 302 296 285 282 275 271 267
79 86 155 230 99 351 174 228 209 203 216 226 230 280 287 305 17 352 343 334 332 340 334 319 317 299 284 279 282 293 293 285 280 278 277 275 288 294 288 281 277 275 271 267
43 128 116 139 104 68 17 296 330 268 153 200 344 288 298 316 316 321 327 337 340 342 357 359 345 329 319 314 306 302 298 295 286 291 282 287 282 279 279 276 274 272 268 269
150 124 122 167 176 150 213 244 223 196 254 277 260 267 258 260 296 334 1 15 12 358 350 347 344 340 340 336 320 300 294 294 289 287 289 291 286 282 278 274 270 270 268 268
163 150 147 234 179 199 275 231 221 196 199 197 212 244 7 46 26 12 31 26 13 2 354 347 340 334 330 325 320 311 302 294 291 292 294 291 286 281 278 273 269 267 266 265
148 138 79 176 111 207 232 117 215 210 224 206 244 100 119 144 309 237 23 5 356 351 347 342 338 336 331 322 316 313 310 307 303 299 295 291 287 282 276 270 267 265 262 260
131 130 147 165 211 304 289 230 174 171 228 251 122 89 42 6 51 186 2 351 345 342 333 329 330 331 331 331 325 317 311 307 306 306 300 292 285 280 276 272 270 266 262 258
131 63 131 149 188 216 248 236 120 116 262 182 126 106 40 20 34 252 339 334 331 329 327 323 319 320 321 321 321 325 323 316 309 303 301 298 293 288 281 275 268 263 260 258
159 186 215 211 226 278 237 230 312 101 235 152 141 82 289 194 250 298 318 322 319 320 324 323 317 314 317 319 319 318 320 319 314 309 304 301 296 290 282 274 266 261 255 253
159 162 197 189 207 255 187 71 166 157 142 143 154 333 318 306 303 311 326 328 324 319 318 317 313 312 312 311 310 312 312 313 312 308 307 303 297 290 279 271 265 258 252 248
204 180 176 177 205 157 117 114 109 93 13 294 328 340 337 309 301 310 321 321 316 314 315 316 313 308 311 311 312 311 310 309 310 308 306 299 294 289 282 273 263 253 247 241
284 172 158 86 212 143 95 316 10 45 352 337 330 325 324 313 305 303 312 311 310 308 311 315 313 308 307 310 314 315 315 312 308 304 300 295 292 289 285 274 258 242 234 234
204 86 151 266 298 332 125 1 13 329 320 318 316 315 310 310 298 302 308 309 306 305 307 311 317 317 312 310 314 316 315 313 311 304 299 291 285 282 276 264 252 240 223 220
183 176 163 227 176 309 296 309 314 312 311 308 308 306 305 299 295 302 305 302 301 299 299 302 309 312 310 306 305 309 311 310 307 302 297 290 282 274 263 251 238 219 209 207
Wind_Speed_850mb
10 8 11 20 17 12 5 5 3 8 9 9 13 17 22 50 53 63 65 62 62 63 57 51 54 54 58 58 61 71 76 83 82 81 81 89 88 79 71 74 71 69 64 60
9 9 20 12 11 11 7 8 9 8 5 5 12 24 24 22 43 59 65 72 67 61 55 49 48 56 60 64 62 64 73 79 85 85 84 85 91 92 92 87 82 77 72 65
14 11 24 11 6 8 6 8 6 11 3 7 10 15 16 10 20 30 41 50 49 46 47 42 42 50 54 66 65 62 65 73 81 84 82 82 86 88 89 93 94 91 82 75
13 18 3 9 10 11 6 5 10 10 4 7 3 12 14 15 25 15 55 63 55 50 41 35 28 33 50 45 63 63 61 62 71 78 80 82 86 92 95 94 93 91 85 81
14 11 13 11 11 12 12 3 4 4 3 6 6 3 16 12 13 25 28 35 26 26 17 20 26 35 34 35 44 56 55 58 68 77 80 79 82 84 87 87 89 87 87 84
10 4 7 15 5 5 15 12 15 11 6 9 16 15 8 9 14 9 8 9 10 12 14 15 21 28 30 29 35 45 53 56 62 71 74 74 75 75 78 83 83 82 80 77
4 6 4 9 13 12 11 13 2 5 3 15 7 7 12 14 15 7 10 18 12 22 13 14 18 16 14 20 30 39 44 46 50 60 66 69 70 71 74 77 79 80 78 77
15 12 19 12 16 18 15 15 11 14 8 10 9 13 10 15 17 24 41 29 15 15 19 19 18 20 27 29 31 30 31 35 39 45 49 53 57 63 68 71 74 78 77 72
13 12 5 7 9 22 12 13 12 6 3 5 9 14 17 16 20 34 33 24 25 23 24 21 26 28 24 18 18 17 16 18 23 27 32 34 38 47 54 59 65 71 71 69
7 4 5 2 5 3 13 13 6 2 5 8 10 10 13 14 10 12 20 35 42 21 9 19 17 18 15 15 17 15 11 7 6 7 11 14 19 28 37 46 55 61 65 67
9 8 5 7 14 20 7 9 8 9 11 11 5 11 10 14 9 11 13 28 32 26 8 11 16 14 16 18 14 12 11 6 3 4 7 12 17 25 33 40 46 52 57 62
12 9 10 15 7 3 2 16 13 10 8 10 7 20 9 18 12 26 25 32 31 28 25 21 13 11 19 15 11 8 5 7 10 16 21 25 28 31 37 41 42 47 52 53
7 6 5 10 9 4 8 10 22 6 6 15 11 18 8 22 21 30 34 42 46 42 32 22 18 12 16 17 11 12 25 27 28 28 31 35 42 45 49 49 50 48 47 49
9 5 5 14 8 3 6 4 6 24 13 18 20 15 5 11 16 24 37 54 59 46 31 30 31 27 24 35 37 41 42 38 40 46 47 49 50 54 58 59 59 56 50 49
7 4 1 6 4 7 4 7 5 4 6 11 9 21 16 28 32 51 63 63 48 43 39 33 33 33 36 39 41 44 47 48 51 58 59 61 60 61 65 67 66 64 57 52
8 4 4 6 10 11 8 17 16 10 7 15 27 42 23 51 30 21 28 27 33 39 40 41 39 38 36 34 31 31 38 41 47 53 64 68 66 67 67 66 66 67 60 57
19 13 9 4 11 8 12 30 34 13 13 18 18 21 6 7 9 15 19 28 33 38 43 48 51 48 45 43 42 44 47 50 57 65 66 67 68 69 66 63 66 66 63 61
12 9 4 5 9 9 13 2 22 34 21 26 21 8 9 3 11 8 24 33 36 40 44 46 49 51 53 56 59 58 55 56 59 60 59 54 56 59 58 60 62 62 62 62
5 10 7 8 9 11 15 11 14 15 14 1 6 7 8 14 2 20 27 31 36 40 41 46 48 51 53 57 60 63 62 61 60 60 60 57 56 56 54 57 58 58 59 59
8 1 6 6 8 16 10 3 13 9 7 12 13 9 6 14 6 6 29 38 43 43 41 45 47 51 55 56 54 55 59 61 62 60 58 53 52 52 51 48 49 52 54 53
8 7 26 18 8 14 11 15 2 9 8 15 14 4 2 6 13 29 36 42 42 49 53 51 51 58 62 66 67 62 59 60 58 58 57 52 48 44 44 44 44 44 48 49
13 15 10 10 8 20 10 7 12 7 16 13 1 19 26 31 33 36 41 52 53 54 57 60 64 61 56 59 63 65 64 60 58 54 50 51 47 41 38 38 38 39 43 44
4 12 10 15 11 6 18 25 21 15 2 7 11 29 40 39 42 48 65 68 62 54 52 52 55 59 56 58 58 59 56 56 58 57 52 46 45 42 38 37 35 35 37 39
6 8 5 7 6 10 12 12 11 9 14 22 34 49 54 52 54 59 71 65 56 54 52 52 47 45 50 53 55 57 55 54 54 52 49 45 41 37 35 34 32 30 29 31
11 5 5 6 8 3 21 16 16 32 47 52 58 61 58 54 50 54 60 59 54 50 47 46 47 46 45 50 56 59 56 53 52 51 47 45 41 37 31 30 27 25 23 22
11 9 6 9 2 1 31 49 54 56 57 54 60 66 59 49 50 48 56 56 55 53 50 53 52 55 53 52 55 53 51 50 50 52 49 46 42 36 31 27 27 26 22 22
Wind_Direction_850mb
187 104 186 209 198 198 185 140 199 264 204 163 228 256 265 276 285 276 272 270 265 262 269 265 262 259 254 248 240 235 234 233 234 231 229 225 224 225 224 231 235 239 238 239
49 209 222 214 190 192 190 220 254 297 174 158 266 272 264 251 263 266 270 273 272 273 273 269 259 258 252 250 246 239 237 237 236 237 236 232 231 228 232 235 239 242 242 240
160 222 208 161 167 166 193 171 234 222 350 284 307 288 291 288 253 278 269 266 270 273 277 279 263 253 251 247 244 245 244 241 239 238 238 236 236 236 234 234 238 240 241 239
216 232 144 163 198 140 234 200 229 254 24 235 131 284 295 267 278 277 269 267 273 284 278 269 261 253 249 251 243 242 245 247 245 242 241 241 239 237 237 238 240 241 237 236
230 178 184 185 202 157 204 139 116 128 162 351 285 265 270 286 276 256 275 272 283 283 281 267 243 234 254 243 238 238 240 246 247 243 244 246 245 244 246 246 246 245 246 244
174 130 172 187 73 163 148 69 36 36 65 278 195 198 278 218 232 278 259 230 240 236 249 242 228 237 254 252 239 234 238 242 244 246 247 248 249 249 248 249 251 250 248 246
142 213 150 134 78 3 108 105 318 326 350 240 276 239 227 258 226 259 286 312 258 238 238 218 213 216 234 249 243 242 244 243 239 241 245 249 252 253 253 253 256 258 257 255
165 260 162 190 177 173 190 161 165 200 206 264 329 238 246 230 255 304 307 313 320 261 236 230 244 263 275 252 240 244 247 245 241 239 241 247 253 255 257 257 260 262 262 262
164 243 153 159 147 153 202 208 171 77 54 24 232 293 306 284 298 329 336 359 360 299 246 255 277 282 266 247 232 219 220 227 230 237 242 248 255 260 262 262 261 262 263 263
200 167 346 57 107 25 154 162 81 5 161 243 255 259 231 280 45 2 15 26 19 14 270 280 264 273 250 207 176 163 152 147 177 221 241 257 269 270 269 267 266 266 265 263
165 127 303 133 202 171 141 192 192 147 158 179 266 258 229 132 158 96 59 43 33 30 13 314 301 267 197 168 156 136 113 92 68 1 334 325 299 286 281 275 269 265 266 266
200 177 179 201 228 241 248 204 166 148 229 226 167 254 169 135 145 82 60 48 35 20 2 334 305 217 185 170 171 166 221 283 297 304 303 301 295 297 289 285 279 269 266 266
182 201 79 352 349 3 198 194 215 168 87 212 159 255 160 128 75 31 15 357 353 348 341 347 348 300 250 235 239 265 296 272 270 277 284 292 302 302 296 285 282 275 271 267
79 86 155 230 99 351 174 228 209 203 216 226 230 280 287 305 17 352 343 334 332 340 334 319 317 299 284 279 282 293 293 285 280 278 277 275 288 294 288 281 277 275 271 267
43 128 116 139 104 68 17 296 330 268 153 200 344 288 298 316 316 321 327 337 340 342 357 359 345 329 319 314 306 302 298 295 286 291 282 287 282 279 279 276 274 272 268 269
150 124 122 167 176 150 213 244 223 196 254 277 260 267 258 260 296 334 1 15 12 358 350 347 344 340 340 336 320 300 294 294 289 287 289 291 286 282 278 274 270 270 268 268
163 150 147 234 179 199 275 231 221 196 199 197 212 244 7 46 26 12 31 26 13 2 354 347 340 334 330 325 320 311 302 294 291 292 294 291 286 281 278 273 269 267 266 265
148 138 79 176 111 207 232 117 215 210 224 206 244 100 119 144 309 237 23 5 356 351 347 342 338 336 331 322 316 313 310 307 303 299 295 291 287 282 276 270 267 265 262 260
131 130 147 165 211 304 289 230 174 171 228 251 122 89 42 6 51 186 2 351 345 342 333 329 330 331 331 331 325 317 311 307 306 306 300 292 285 280 276 272 270 266 262 258
131 63 131 149 188 216 248 236 120 116 262 182 126 106 40 20 34 252 339 334 331 329 327 323 319 320 321 321 321 325 323 316 309 303 301 298 293 288 281 275 268 263 260 258
159 186 215 211 226 278 237 230 312 101 235 152 141 82 289 194 250 298 318 322 319 320 324 323 317 314 317 319 319 318 320 319 314 309 304 301 296 290 282 274 266 261 255 253
159 162 197 189 207 255 187 71 166 157 142 143 154 333 318 306 303 311 326 328 324 319 318 317 313 312 312 311 310 312 312 313 312 308 307 303 297 290 279 271 265 258 252 248
204 180 176 177 205 157 117 114 109 93 13 294 328 340 337 309 301 310 321 321 316 314 315 316 313 308 311 311 312 311 310 309 310 308 306 299 294 289 282 273 263 253 247 241
284 172 158 86 212 143 95 316 10 45 352 337 330 325 324 313 305 303 312 311 310 308 311 315 313 308 307 310 314 315 315 312 308 304 300 295 292 289 285 274 258 242 234 234
204 86 151 266 298 332 125 1 13 329 320 318 316 315 310 310 298 302 308 309 306 305 307 311 317 317 312 310 314 316 315 313 311 304 299 291 285 282 276 264 252 240 223 220
183 176 163 227 176 309 296 309 314 312 311 308 308 306 305 299 295 302 305 302 301 299 299 302 309 312 310 306 305 309 311 310 307 302 297 290 282 274 263 251 238 219 209 207